Location: Devore Heights
(34.2372°N, 117.4156°W)
Time: 07:22:10
(UTC+00:00)

Vanguard 1 Rocket - Pass Details

Date: 19 September 2024
Orbit: 650 x 4218 km, 34.3° (Epoch: 09 October)

Event Time Altitude Azimuth Distance (km) Brightness Sun altitude
Rises 14:55:27 0° 284° (WNW) 6,637 11.2 15.5°
Reaches altitude 10° 14:59:10 10° 283° (WNW) 5,985 11.0 16.3°
Maximum altitude 15:20:35 76° 203° (SSW) 4,203 11.1 20.6°
Drops below altitude 10° 15:46:20 10° 122° (ESE) 6,950 13.5 25.7°
Sets 15:51:06 0° 121° (ESE) 7,687 13.3 26.6°
